1499695201.11,53407,17.94,74194.8,12.15,9.95,9.77,0,*43
1499695202.32,53408,17.94,74206.3,12.15,10.19,9.99,0,*70
1499695203.56,53409,17.94,74208.8,12.17,10.09,9.89,0,*73
1499695204.79,53410,17.94,74202.8,12.17,9.99,9.89,0,*4A
1499695206.02,53411,17.94,74202.5,12.21,9.75,9.61,0,*4A
1499695207.24,53412,17.94,74214.0,12.19,9.53,9.39,0,*4B
1499695208.49,53413,17.94,74222.0,12.21,10.13,10.27,0,*4A
1499695209.7,53414,17.94,74212.5,12.21,9.43,9.63,0,*48
1499695210.9,53415,17.94,74212.3,12.21,9.75,9.91,0,*41
1499695212.13,53416,17.94,74194.3,12.27,9.71,9.81,0,*41
1499695213.35,53417,17.94,74192.3,12.27,10.19,10.13,0,*45
1499695214.58,53418,17.94,74200.5,12.27,10.69,10.65,0,*4C
1499695215.79,53419,17.94,74210.8,12.31,10.03,9.81,0,*74
1499695216.98,53420,17.94,74208.8,12.31,10.17,9.71,0,*74
1499695218.24,53421,17.94,74214.8,12.29,9.81,9.15,0,*49
1499695219.44,53422,17.94,74212.3,12.31,9.61,8.87,0,*47
1499695220.67,53423,17.94,74212.8,12.31,9.49,8.51,0,*47
1499695221.94,53424,17.94,74224.0,12.33,8.93,7.61,0,*48
1499695223.2,53425,17.94,74222.0,12.33,8.59,7.47,0,*4B
1499695224.44,53426,17.94,74202.8,12.33,8.79,7.91,0,*41
1499695225.7,53427,17.94,74204.8,12.33,9.15,8.37,0,*48
1499695226.96,53428,17.94,74210.3,12.33,9.85,9.61,0,*4C
1499695228.18,53429,17.94,74210.3,12.35,10.41,10.33,0,*44
1499695229.43,53430,17.94,74206.3,12.33,10.23,10.05,0,*4B
1499695230.61,53431,17.94,74192.0,12.35,9.43,9.33,0,*4F
1499695231.85,53432,17.94,74188.0,12.35,9.85,9.77,0,*46
1499695233.08,53433,17.94,74182.5,12.37,9.89,9.71,0,*4F
1499695234.31,53434,17.94,74180.3,12.39,10.23,10.03,0,*43
1499695235.54,53435,17.94,74194.3,12.37,9.25,8.89,0,*49
1499695236.75,53436,17.94,74204.8,12.37,8.23,7.79,0,*4D
1499695237.96,53437,17.94,74210.3,12.39,7.77,7.33,0,*42
1499695239.17,53438,17.94,74218.0,12.35,8.15,7.61,0,*4D
1499695240.39,53439,17.94,74220.5,12.35,7.55,6.87,0,*4E
1499695241.62,53440,17.94,74218.8,12.33,6.53,6.11,0,*4E
1499695242.87,53441,17.94,74216.3,12.33,6.53,6.57,0,*4D
1499695244.08,53442,17.94,74214.8,12.33,6.33,6.83,0,*41
1499695245.35,53443,17.94,74204.3,12.33,7.11,7.95,0,*47
1499695246.58,53444,17.94,74202.5,12.33,7.37,8.41,0,*42
1499695247.82,53445,17.94,74202.3,12.33,8.13,8.79,0,*41
1499695249.04,53446,17.94,74202.8,12.31,8.93,9.15,0,*43
1499695250.27,53447,17.94,74200.3,12.31,8.93,9.15,0,*42
1499695251.47,53448,17.94,74200.8,12.31,9.53,9.63,0,*41
1499695252.65,53449,17.94,74204.8,12.31,9.71,9.63,0,*40
1499695253.83,53450,17.94,74206.5,12.31,9.25,9.07,0,*4B
1499695255.06,53451,17.94,74210.5,12.29,8.79,8.75,0,*4F
1499695256.3,53452,17.94,74206.5,12.29,9.01,8.83,0,*4B
1499695257.49,53453,17.94,74208.3,12.31,9.07,8.87,0,*41
1499695258.67,53454,17.94,74206.3,12.31,9.71,9.63,0,*4C
1499695259.88,53455,17.94,74206.8,12.29,9.67,9.43,0,*41
1499695261.11,53456,17.94,74208.8,12.29,9.71,9.61,0,*45
1499695262.38,53457,17.94,74210.3,12.29,10.27,10.19,0,*48
1499695263.56,53458,17.94,74214.3,12.31,9.75,9.75,0,*43
1499695264.78,53459,17.94,74212.3,12.31,9.85,9.75,0,*4D
1499695265.96,53460,17.94,74214.0,12.31,9.71,9.63,0,*4B
1499695267.19,53461,17.94,74214.5,12.29,9.47,9.35,0,*45
1499695268.43,53462,17.94,74210.8,12.29,9.49,9.43,0,*49
1499695269.66,53463,17.94,74206.5,12.29,9.33,9.11,0,*42
1499695270.92,53464,17.94,74206.8,12.29,9.11,9.01,0,*44
1499695272.18,53465,17.94,74204.5,12.29,9.11,9.01,0,*45
1499695273.41,53466,17.94,74204.3,12.29,9.35,9.21,0,*42
1499695274.62,53467,17.94,74210.5,12.29,9.33,9.21,0,*45
1499695275.83,53468,17.94,74210.3,12.29,9.21,9.03,0,*49
1499695277.09,53469,17.94,74210.0,12.29,9.11,8.93,0,*43
1499695278.29,53470,17.94,74212.8,12.27,9.35,9.33,0,*48
1499695279.54,53471,17.94,74212.3,12.27,9.89,9.81,0,*47
1499695280.75,53472,17.94,74214.3,12.27,9.81,9.71,0,*43
1499695281.97,53473,17.94,74210.8,12.27,9.77,9.67,0,*4C
1499695283.17,53474,17.94,74206.8,12.23,9.99,9.85,0,*43
1499695284.36,53475,17.94,74206.0,12.27,9.67,9.67,0,*4B
1499695285.59,53476,17.94,74204.3,12.27,9.61,9.35,0,*49
1499695286.78,53477,17.94,74204.0,12.27,9.47,9.33,0,*4A
1499695288.01,53478,17.94,74206.3,12.27,9.61,9.57,0,*43
1499695289.22,53479,17.94,74200.5,12.27,9.67,9.57,0,*44
1499695290.48,53480,17.94,74200.5,12.29,9.49,9.35,0,*44
1499695291.72,53481,17.94,74192.5,12.29,9.77,9.67,0,*4F
1499695292.94,53482,17.94,74192.3,12.27,10.33,10.27,0,*46
1499695294.15,53483,17.94,74186.8,12.27,10.13,10.09,0,*49
1499695295.34,53484,17.94,74172.8,12.27,9.47,9.25,0,*41
1499695296.55,53485,17.94,74176.8,12.29,9.71,9.71,0,*4A
1499695297.79,53486,17.94,74198.0,12.31,10.23,10.23,0,*40
1499695299.03,53487,17.94,74214.5,12.31,10.57,10.57,0,*41
1499695300.21,53488,17.94,74214.3,12.31,9.25,8.87,0,*47
1499695301.42,53489,17.94,74214.0,12.31,9.19,9.03,0,*44
1499695302.65,53490,17.94,74204.3,12.31,9.35,9.19,0,*49
1499695303.9,53491,17.94,74204.5,12.29,10.19,10.13,0,*45
1499695305.08,53492,17.94,74212.3,12.31,9.95,9.91,0,*41
1499695306.26,53493,17.94,74214.5,12.31,9.71,9.71,0,*44
1499695307.51,53494,17.94,74212.0,12.33,10.03,9.81,0,*73
1499695308.76,53495,17.94,74212.0,12.33,10.31,10.03,0,*41
1499695309.97,53496,17.94,74208.0,12.35,10.05,9.39,0,*72
1499695311.18,53497,17.94,74210.8,12.33,10.03,9.07,0,*7E
1499695312.37,53498,17.94,74222.8,12.35,10.05,9.29,0,*7D
1499695313.58,53499,17.94,74230.3,12.35,9.77,8.87,0,*44
1499695314.79,53500,17.94,74228.5,12.39,9.67,8.59,0,*4B
1499695316.0,53501,17.94,74224.0,12.39,9.53,8.69,0,*4E
1499695317.22,53502,17.94,74222.3,12.41,10.13,9.75,0,*72
1499695318.43,53503,17.94,74214.0,12.43,10.09,9.89,0,*79
1499695319.65,53504,17.94,74220.5,12.43,9.61,9.11,0,*49
1499695320.89,53505,17.94,74216.3,12.49,8.97,8.19,0,*43
1499695322.1,53506,17.94,74220.0,12.49,8.69,8.19,0,*41
1499695323.34,53507,17.94,74220.5,12.49,9.01,8.87,0,*48
1499695324.55,53508,17.94,74218.8,12.45,9.07,8.83,0,*49
1499695325.81,53509,17.94,74220.0,12.49,8.89,8.33,0,*48
1499695327.02,53510,17.94,74210.5,12.51,8.51,8.01,0,*4D
1499695328.25,53511,17.94,74204.8,12.51,7.47,7.27,0,*4F
1499695329.44,53512,17.94,74198.0,12.51,7.37,7.37,0,*4A
1499695330.67,53513,17.94,74204.0,12.45,6.83,7.23,0,*45
1499695331.93,53514,17.94,74198.5,12.45,7.77,8.33,0,*46
1499695333.19,53515,17.94,74198.5,12.45,7.95,8.51,0,*4F
1499695334.42,53516,17.94,74190.8,12.43,7.77,8.29,0,*49
1499695335.66,53517,17.94,74186.8,12.41,7.59,7.95,0,*4E
1499695336.86,53518,17.94,74176.5,12.39,7.87,8.01,0,*4F
1499695338.07,53519,17.94,74174.8,12.37,8.09,8.09,0,*41
1499695339.3,53520,17.94,74170.0,12.37,8.75,8.69,0,*46
1499695340.54,53521,17.94,74174.5,12.33,9.35,9.25,0,*4F
1499695341.77,53522,17.94,74178.0,12.35,9.89,9.89,0,*4B
1499695343.01,53523,17.94,74178.5,12.35,9.89,9.77,0,*4B
1499695344.22,53524,17.94,74182.5,12.35,9.75,9.77,0,*4F
1499695345.43,53525,17.94,74188.5,12.35,9.57,9.43,0,*49
1499695346.63,53526,17.94,74190.3,12.35,9.29,9.19,0,*4C
1499695347.86,53527,17.94,74194.5,12.37,9.35,9.33,0,*4A
1499695349.09,53528,17.94,74192.0,12.37,9.25,9.15,0,*40
1499695350.3,53529,17.94,74202.0,12.35,8.97,8.87,0,*41
1499695351.51,53530,17.94,74206.0,12.35,9.01,8.87,0,*47
1499695352.76,53531,17.94,74202.3,12.33,9.07,8.93,0,*43
1499695354.01,53532,17.94,74208.3,12.33,9.15,8.97,0,*47
1499695355.23,53533,17.94,74214.0,12.33,9.25,9.07,0,*4D
1499695356.44,53534,17.94,74222.3,12.35,9.39,9.21,0,*45
1499695357.65,53535,17.94,74220.8,12.35,9.53,9.47,0,*48
1499695358.89,53536,17.94,74224.0,12.33,8.83,8.59,0,*4F
1499695360.11,53537,17.94,74220.0,12.29,9.33,9.15,0,*46
1499695361.37,53538,17.94,74216.5,12.29,9.49,9.35,0,*46
1499695362.61,53539,17.94,74210.8,12.29,9.77,9.67,0,*4D
1499695363.82,53540,17.94,74204.0,12.31,9.81,9.75,0,*40
1499695365.02,53541,17.94,74194.3,12.31,9.61,9.47,0,*4E
1499695366.24,53542,17.94,74196.8,12.31,9.71,9.49,0,*42
1499695367.43,53543,17.94,74214.3,12.31,10.05,9.91,0,*7D
1499695368.66,53544,17.94,74204.0,12.31,8.93,8.71,0,*43
1499695369.87,53545,17.94,74202.0,12.31,9.19,9.03,0,*45
1499695371.07,53546,17.94,74196.3,12.31,9.61,9.47,0,*49
1499695372.25,53547,17.94,74202.8,12.31,9.71,9.63,0,*4F
1499695373.44,53548,17.94,74200.8,12.31,10.05,10.03,0,*45
1499695374.65,53549,17.94,74202.8,12.31,10.57,10.51,0,*44
1499695375.89,53550,17.94,74204.5,12.35,10.33,10.31,0,*4C
1499695377.14,53551,17.94,74206.3,12.33,10.23,10.13,0,*4A
1499695378.35,53552,17.94,74208.3,12.33,9.95,9.91,0,*4E
1499695379.57,53553,17.94,74200.8,12.35,10.19,10.17,0,*43
1499695380.79,53554,17.94,74206.5,12.35,9.85,9.75,0,*45
1499695381.99,53555,17.94,74226.5,12.35,10.09,10.09,0,*4B
1499695383.18,53556,17.94,74228.8,12.35,10.55,10.55,0,*48
1499695384.44,53557,17.94,74234.0,12.37,10.37,10.37,0,*4B
1499695385.65,53558,17.94,74240.0,12.39,10.37,10.43,0,*49
1499695386.84,53559,17.94,74230.8,12.39,9.99,9.91,0,*43
1499695388.09,53560,17.94,74206.5,12.37,10.13,10.31,0,*4F
1499695389.29,53561,17.94,74198.0,12.39,10.09,10.09,0,*40
1499695390.47,53562,17.94,74198.3,12.39,9.67,9.71,0,*44
1499695391.71,53563,17.94,74202.5,12.41,9.47,9.39,0,*44
1499695392.91,53564,17.94,74202.8,12.39,9.35,9.33,0,*43
1499695394.09,53565,17.94,74200.5,12.39,9.43,9.33,0,*43
1499695395.3,53566,17.94,74208.5,12.39,9.47,9.35,0,*42
1499695396.51,53567,17.94,74212.5,12.39,9.21,9.15,0,*41
1499695397.74,53568,17.94,74218.5,12.39,9.57,9.53,0,*4D
1499695398.95,53569,17.94,74218.0,12.37,9.67,9.67,0,*46
1499695400.18,53570,17.94,74222.0,12.37,9.77,9.67,0,*4F
1499695401.45,53571,17.94,74232.0,12.37,9.81,9.81,0,*4F
1499695402.68,53572,17.94,74238.3,12.37,8.45,8.33,0,*4D
1499695403.92,53573,17.94,74222.8,12.37,7.47,7.29,0,*45
1499695405.13,53574,17.94,74206.0,12.35,7.61,7.41,0,*4A
1499695406.33,53575,17.94,74192.5,12.29,7.55,7.33,0,*44
1499695407.53,53576,17.94,74172.3,12.23,7.37,7.19,0,*41
1499695408.74,53577,17.94,74174.3,12.23,8.41,8.19,0,*41
1499695409.95,53578,17.94,74188.0,12.23,8.33,8.19,0,*4B
1499695411.18,53579,17.94,74190.0,12.21,8.41,8.27,0,*40
1499695412.42,53580,17.94,74188.8,12.21,8.41,8.27,0,*46
1499695413.61,53581,17.94,74194.8,12.19,8.27,8.09,0,*40
1499695414.87,53582,17.94,74178.8,12.17,8.47,8.33,0,*42
1499695416.1,53583,17.94,74172.0,12.17,8.89,8.79,0,*4F
1499695417.3,53584,17.94,74162.3,12.15,9.21,9.11,0,*46
1499695418.53,53585,17.94,74174.8,12.17,9.99,9.89,0,*47
1499695419.79,53586,17.94,74184.8,12.17,9.11,8.89,0,*45
1499695421.05,53587,17.94,74192.5,12.17,8.55,8.33,0,*44
1499695422.28,53588,17.94,74200.0,12.15,9.11,8.97,0,*46
1499695423.48,53589,17.94,74198.5,12.15,9.35,9.21,0,*4D
1499695424.67,53590,17.94,74200.0,12.15,9.43,9.33,0,*47
1499695425.92,53591,17.94,74200.5,12.17,9.57,9.57,0,*43
1499695427.16,53592,17.94,74208.0,12.17,9.81,9.71,0,*4F
1499695428.38,53593,17.94,74210.3,12.17,10.13,10.09,0,*4A
1499695429.66,53594,17.94,74210.0,12.17,10.23,10.23,0,*46
1499695430.86,53595,17.94,74208.3,12.19,10.17,10.13,0,*4D
1499695432.14,53596,17.94,74212.3,12.21,10.31,10.31,0,*41
1499695433.38,53597,17.94,74214.8,12.21,10.27,10.05,0,*40
1499695434.62,53598,17.94,74212.3,12.21,9.91,9.81,0,*4E
1499695435.8,53599,17.94,74212.5,12.23,10.43,10.43,0,*4C
1499695437.03,53600,17.94,74216.0,12.27,10.79,10.69,0,*4A
1499695438.22,53601,17.94,74222.8,12.27,10.69,10.69,0,*4A
1499695439.44,53602,17.94,74224.0,12.29,10.55,10.47,0,*44
1499695440.66,53603,18.0,74222.5,12.31,10.47,10.41,0,*49
1499695441.87,53604,17.94,74222.0,12.31,10.47,10.41,0,*4E
1499695443.05,53605,17.94,74220.3,12.31,10.47,10.43,0,*4D
1499695444.3,53606,17.94,74216.8,12.31,10.41,10.31,0,*4D
1499695445.52,53607,17.94,74228.8,12.33,10.13,10.03,0,*48
1499695446.77,53608,17.94,74228.0,12.33,10.47,10.41,0,*40
1499695447.98,53609,17.94,74234.5,12.35,10.43,10.41,0,*43
1499695449.17,53610,17.94,74236.5,12.35,10.09,9.99,0,*78
1499695450.39,53611,17.94,74236.5,12.35,10.19,10.09,0,*49
1499695451.59,53612,17.94,74226.0,12.35,10.05,10.05,0,*4B
1499695452.81,53613,17.94,74220.3,12.37,9.99,10.03,0,*73
1499695454.04,53614,17.94,74214.0,12.37,10.43,10.37,0,*4C
1499695455.26,53615,17.94,74202.3,12.41,10.51,10.51,0,*4F
1499695456.45,53616,17.94,74202.8,12.39,10.47,10.43,0,*47
1499695457.64,53617,17.94,74194.8,12.39,10.47,10.47,0,*42
1499695458.91,53618,17.94,74196.3,12.41,10.27,10.27,0,*42
1499695460.15,53619,17.94,74196.0,12.41,9.71,9.61,0,*42
1499695461.41,53620,17.94,74198.8,12.41,9.39,9.35,0,*45
1499695462.67,53621,17.94,74194.8,12.41,9.39,9.35,0,*44
1499695463.87,53622,17.94,74194.5,12.39,9.33,9.15,0,*40
1499695465.11,53623,17.94,74188.8,12.37,9.01,8.87,0,*44
1499695466.29,53624,17.94,74184.3,12.39,9.21,9.21,0,*42
1499695467.53,53625,17.94,74194.0,12.37,9.03,8.93,0,*45
1499695468.79,53626,17.94,74198.8,12.37,9.53,9.35,0,*4E
1499695469.99,53627,17.94,74202.3,12.39,9.67,9.57,0,*42
1499695471.18,53628,17.94,74200.0,12.35,9.43,9.29,0,*4E
1499695472.42,53629,17.94,74208.0,12.33,9.07,8.93,0,*49
1499695473.65,53630,17.94,74210.0,12.35,9.53,9.39,0,*47
1499695474.85,53631,17.94,74218.8,12.35,10.17,10.09,0,*45
1499695476.06,53632,17.94,74222.3,12.35,9.63,9.53,0,*4A
1499695477.25,53633,17.94,74220.8,12.35,9.75,9.67,0,*4B
1499695478.47,53634,17.94,74218.5,12.37,10.33,10.33,0,*4D
1499695479.7,53635,17.94,74212.5,12.37,10.13,10.13,0,*4C
1499695480.96,53636,17.94,74214.3,12.37,10.33,10.31,0,*4D
1499695482.19,53637,17.94,74220.3,12.39,9.77,9.77,0,*40
1499695483.43,53638,17.94,74216.0,12.39,9.89,9.81,0,*47
1499695484.65,53639,17.94,74218.0,12.39,10.33,10.37,0,*4A
1499695485.87,53640,18.0,74220.3,12.41,10.89,10.93,0,*44
1499695487.07,53641,17.94,74220.3,12.43,11.13,11.13,0,*4C
1499695488.35,53642,17.94,74218.0,12.45,11.37,11.41,0,*48
1499695489.63,53643,17.94,74214.8,12.49,11.45,11.61,0,*42
1499695490.9,53644,17.94,74214.8,12.53,11.37,11.37,0,*48
1499695492.11,53645,17.94,74214.8,12.55,11.27,11.17,0,*4C
1499695493.36,53646,17.94,74210.3,12.57,10.85,10.75,0,*41
1499695494.6,53647,17.94,74212.0,12.57,10.37,10.09,0,*42
1499695495.88,53648,17.94,74212.3,12.57,10.37,10.31,0,*46
1499695497.11,53649,17.94,74216.0,12.61,9.61,9.57,0,*41
1499695498.37,53650,17.94,74212.0,12.57,9.85,9.89,0,*45
1499695499.58,53651,17.94,74210.0,12.59,9.15,9.07,0,*45
1499695500.79,53652,17.94,74204.5,12.59,9.77,9.75,0,*47
1499695501.99,53653,17.94,74222.0,12.61,10.13,10.05,0,*48
1499695503.19,53654,17.94,74224.5,12.61,10.13,10.03,0,*49
1499695504.4,53655,17.94,74216.8,12.61,9.15,9.03,0,*4E
1499695505.61,53656,17.94,74198.5,12.61,8.93,8.69,0,*4F
1499695506.81,53657,17.94,74210.8,12.59,8.97,8.65,0,*4D
1499695508.04,53658,17.94,74216.3,12.63,9.67,9.39,0,*4D
1499695509.26,53659,17.94,74212.5,12.63,9.03,8.61,0,*42
1499695510.48,53660,17.94,74192.8,12.63,9.67,9.15,0,*48
1499695511.72,53661,17.94,74186.8,12.63,9.77,8.87,0,*42
1499695512.95,53662,17.94,74204.5,12.65,8.93,8.29,0,*48
1499695514.17,53663,17.94,74210.8,12.65,8.83,8.37,0,*47
1499695515.37,53664,17.94,74216.8,12.65,8.87,8.27,0,*45
1499695516.56,53665,17.94,74208.0,12.65,8.19,7.51,0,*4D
1499695517.8,53666,17.94,74214.8,12.67,7.79,6.87,0,*4F
1499695519.01,53667,18.0,74204.3,12.63,7.55,6.97,0,*45
1499695520.27,53668,17.94,74206.5,12.63,6.91,7.47,0,*4F
1499695521.52,53669,17.94,74212.8,12.63,7.83,8.33,0,*40
1499695522.74,53670,17.94,74210.0,12.61,8.15,8.47,0,*49
1499695523.99,53671,17.94,74214.3,12.63,8.37,8.47,0,*4A
1499695525.2,53672,17.94,74216.5,12.61,8.59,8.69,0,*4F
1499695526.44,53673,17.94,74222.8,12.61,9.19,9.19,0,*4D
1499695527.66,53674,17.94,74226.0,12.61,9.19,9.03,0,*41
1499695528.85,53675,17.94,74208.5,12.61,9.43,9.25,0,*4B
1499695530.03,53676,17.94,74218.8,12.61,9.33,9.21,0,*4B
1499695531.25,53677,17.94,74216.5,12.61,9.03,9.01,0,*4B
1499695532.44,53678,17.94,74210.3,12.59,8.79,8.69,0,*4C
1499695533.67,53679,17.94,74200.8,12.59,9.01,9.01,0,*4C
1499695534.85,53680,17.94,74202.0,12.59,9.33,9.25,0,*4D
1499695536.06,53681,17.94,74202.3,12.59,8.87,8.75,0,*46
1499695537.29,53682,18.0,74204.5,12.59,8.33,8.13,0,*4A
1499695538.51,53683,17.94,74208.5,12.57,8.19,7.97,0,*4E
1499695539.71,53684,17.94,74208.3,12.55,8.87,8.71,0,*4B
1499695540.89,53685,17.94,74204.8,12.55,8.65,8.45,0,*41
1499695542.1,53686,17.94,74198.5,12.55,8.15,7.87,0,*44
1499695543.29,53687,17.94,74202.0,12.51,8.27,8.01,0,*41
1499695544.49,53688,17.94,74204.0,12.51,8.61,8.33,0,*4D
1499695545.7,53689,17.94,74218.3,12.51,8.47,8.15,0,*4C
1499695546.94,53690,17.94,74218.5,12.45,8.15,7.87,0,*42
1499695548.17,53691,17.94,74220.0,12.45,7.97,7.87,0,*46
1499695549.35,53692,17.94,74220.0,12.43,8.19,8.05,0,*4F
1499695550.59,53693,17.94,74208.0,12.41,8.61,8.51,0,*42
1499695551.81,53694,17.94,74188.8,12.43,8.93,8.71,0,*48
1499695553.05,53695,17.94,74214.5,12.41,8.93,8.79,0,*43
1499695554.28,53696,17.94,74190.5,12.41,8.41,8.23,0,*40
1499695555.49,53697,17.94,74180.8,12.39,7.79,7.65,0,*47
1499695556.73,53698,17.94,74194.0,12.37,8.23,7.91,0,*4D
1499695557.96,53699,17.94,74168.3,12.37,8.65,8.37,0,*4D
1499695559.17,53700,17.94,74184.8,12.35,8.55,8.23,0,*48
1499695560.37,53701,17.94,74192.5,12.35,8.61,8.33,0,*4F
1499695561.59,53702,17.94,74194.3,12.33,8.87,8.69,0,*4D
1499695562.82,53703,18.0,74194.8,12.33,8.97,8.79,0,*4C
1499695564.06,53704,18.0,74190.8,12.33,9.15,9.03,0,*4C
1499695565.32,53705,17.94,74150.0,12.33,7.27,7.15,0,*4B
1499695566.52,53706,17.94,74154.0,12.31,8.29,8.19,0,*48
1499695567.75,53707,17.94,74158.3,12.31,8.47,8.41,0,*4C
1499695568.96,53708,17.94,74142.3,12.31,9.15,9.03,0,*42
1499695570.19,53709,17.94,74138.8,12.29,9.35,9.25,0,*4C
1499695571.42,53710,17.94,74160.0,12.31,9.53,9.39,0,*40
1499695572.62,53711,17.94,74164.0,12.31,9.63,9.61,0,*4F
1499695573.83,53712,17.94,74176.3,12.31,9.81,9.71,0,*41
1499695575.06,53713,17.94,74188.3,12.33,9.71,9.61,0,*4C
1499695576.3,53714,18.0,74200.8,12.33,9.39,9.25,0,*47
1499695577.5,53715,17.94,74194.8,12.35,9.21,8.97,0,*41
1499695578.72,53716,18.0,74198.3,12.33,9.03,8.87,0,*45
1499695579.95,53717,17.94,74184.8,12.35,8.51,8.51,0,*4F
1499695581.16,53718,17.94,74188.0,12.31,8.69,8.51,0,*4F
1499695582.34,53719,17.94,74178.8,12.31,9.03,8.83,0,*4C
1499695583.55,53720,17.94,74190.5,12.31,9.53,9.47,0,*4A
1499695584.76,53721,17.94,74202.8,12.31,9.19,9.07,0,*41
1499695585.94,53722,17.94,74196.5,12.31,9.29,9.07,0,*41
1499695587.17,53723,17.94,74206.8,12.29,9.49,9.47,0,*4B
1499695588.41,53724,18.0,74212.5,12.35,9.85,9.77,0,*42
1499695589.66,53725,18.0,74196.0,12.33,8.47,8.27,0,*4E
1499695590.86,53726,17.94,74198.3,12.35,8.09,7.87,0,*44
1499695592.07,53727,17.94,74172.5,12.31,8.19,8.13,0,*42
1499695593.28,53728,18.0,74200.0,12.31,9.47,9.39,0,*4E
1499695594.47,53729,18.0,74182.0,12.31,10.05,9.91,0,*73
1499695595.66,53730,17.94,74180.5,12.35,10.17,9.95,0,*78
1499695596.91,53731,18.0,74184.0,12.33,8.71,8.47,0,*48
1499695598.18,53732,18.0,74166.8,12.33,9.15,8.93,0,*41
1499695599.44,53733,17.94,74166.3,12.33,9.81,9.61,0,*41
1499695600.71,53734,18.0,74172.0,12.33,10.37,10.23,0,*4D
1499695601.93,53735,17.94,74164.0,12.35,9.89,9.75,0,*4C
1499695603.15,53736,17.94,74174.0,12.35,10.31,10.17,0,*48
1499695604.37,53737,17.94,74176.8,12.37,10.85,10.69,0,*4D
1499695605.62,53738,17.94,74182.5,12.39,11.45,11.23,0,*4E
1499695606.86,53739,17.94,74172.0,12.43,11.67,11.31,0,*41
1499695608.09,53740,17.94,74162.0,12.49,11.51,11.13,0,*40
1499695609.31,53741,17.94,74172.3,12.51,10.61,10.05,0,*4C
1499695610.54,53742,17.94,74186.5,12.53,9.49,8.69,0,*4C
1499695611.74,53743,18.0,74188.8,12.55,8.65,7.83,0,*4F
1499695612.97,53744,18.0,74174.0,12.55,8.37,7.65,0,*47
1499695614.19,53745,17.94,74164.0,12.55,8.37,7.83,0,*4E
1499695615.42,53746,17.94,74174.3,12.53,7.83,7.55,0,*40
1499695616.62,53747,17.94,74176.5,12.55,8.45,8.29,0,*46
1499695617.85,53748,18.0,74164.5,12.51,8.37,8.37,0,*47
1499695619.04,53749,17.94,74174.3,12.51,8.23,8.05,0,*42
1499695620.23,53750,17.94,74180.8,12.51,8.27,8.05,0,*4E
1499695621.42,53751,17.94,74176.8,12.51,9.03,8.69,0,*42
1499695622.65,53752,17.94,74178.0,12.49,9.15,8.65,0,*43
1499695623.91,53753,18.0,74182.0,12.49,9.01,8.59,0,*48
1499695625.15,53754,17.94,74174.8,12.45,8.33,8.05,0,*4A
1499695626.42,53755,18.0,74178.3,12.45,7.95,7.73,0,*46
1499695627.65,53756,18.0,74190.5,12.45,8.29,8.19,0,*4E
1499695628.86,53757,18.0,74196.5,12.43,8.87,8.75,0,*47
1499695630.09,53758,17.94,74188.0,12.41,8.61,8.51,0,*44
1499695631.35,53759,18.0,74206.3,12.41,8.59,8.47,0,*49
1499695632.56,53760,17.94,74202.8,12.39,8.87,8.75,0,*4E
1499695633.79,53761,17.94,74208.5,12.39,9.15,9.11,0,*46
1499695635.01,53762,17.94,74206.3,12.37,9.21,9.15,0,*48
1499695636.25,53763,18.0,74206.0,12.39,9.89,9.81,0,*48
1499695637.49,53764,17.94,74206.0,12.37,8.93,8.87,0,*4C
1499695638.72,53765,17.94,74196.5,12.37,8.87,8.75,0,*45
1499695639.96,53766,18.0,74194.5,12.37,9.03,8.93,0,*43
1499695641.19,53767,17.94,74194.8,12.37,9.21,9.15,0,*4D
1499695642.42,53768,18.0,74202.5,12.37,9.53,9.47,0,*40
1499695643.63,53769,18.0,74210.8,12.37,10.43,10.43,0,*44
1499695644.85,53770,17.94,74200.8,12.39,10.37,10.33,0,*46
1499695646.09,53771,17.94,74196.8,12.37,9.99,9.81,0,*44
1499695647.31,53772,17.94,74198.5,12.39,10.23,10.13,0,*43
1499695648.53,53773,18.0,74206.8,12.39,10.69,10.57,0,*4C
1499695649.75,53774,18.0,74214.0,12.43,10.93,10.75,0,*43
1499695651.0,53775,17.94,74222.8,12.45,10.85,10.83,0,*4A
1499695652.26,53776,17.94,74222.3,12.45,9.89,9.77,0,*4E
1499695653.5,53777,17.94,74208.0,12.45,9.07,8.71,0,*4E
1499695654.73,53778,17.94,74216.3,12.45,8.97,8.61,0,*48
1499695655.94,53779,18.0,74226.3,12.45,9.75,9.21,0,*41
1499695657.18,53780,18.0,74226.0,12.49,9.99,9.77,0,*4A
1499695658.42,53781,17.94,74218.8,12.49,9.81,9.25,0,*45
1499695659.63,53782,17.94,74214.8,12.49,9.43,9.25,0,*48
1499695660.87,53783,18.0,74214.3,12.49,9.35,9.33,0,*4F
1499695662.1,53784,18.0,74212.3,12.49,9.35,9.25,0,*4F
1499695663.33,53785,18.0,74206.3,12.51,9.61,9.57,0,*43
1499695664.54,53786,17.94,74196.0,12.49,9.67,9.63,0,*48
1499695665.77,53787,17.94,74198.0,12.49,9.77,9.67,0,*4C
1499695666.99,53788,18.0,74204.3,12.51,9.95,9.81,0,*4E
1499695668.2,53789,18.0,74222.0,12.51,9.95,9.81,0,*4F
1499695669.4,53790,18.0,74222.3,12.51,8.61,8.37,0,*41
1499695670.64,53791,18.0,74200.3,12.51,8.89,8.71,0,*44
1499695671.87,53792,18.0,74202.5,12.45,8.65,8.51,0,*42
1499695673.1,53793,17.94,74202.0,12.43,7.95,7.61,0,*49
1499695674.3,53794,18.0,74206.5,12.43,7.97,7.87,0,*44
1499695675.53,53795,17.94,74206.3,12.41,8.51,8.23,0,*43
1499695676.75,53796,18.0,74206.3,12.41,8.23,8.01,0,*45
1499695677.99,53797,18.0,74214.5,12.39,7.91,7.69,0,*4C
1499695679.19,53798,18.0,74202.8,12.37,7.97,7.79,0,*4A
1499695680.43,53799,18.0,74202.3,12.37,7.91,7.79,0,*4D
1499695681.66,53800,18.0,74200.0,12.33,8.29,8.19,0,*43
1499695682.89,53801,18.0,74212.8,12.33,8.29,8.19,0,*42
1499695684.1,53802,17.94,74196.8,12.31,7.23,7.01,0,*40
1499695685.3,53803,18.0,74194.5,12.29,7.59,7.45,0,*45
1499695686.5,53804,17.94,74186.5,12.29,7.33,7.09,0,*46
1499695687.68,53805,18.0,74184.5,12.23,6.97,6.83,0,*41
1499695688.9,53806,18.0,74178.3,12.19,7.05,6.91,0,*42
1499695690.13,53807,18.0,74198.0,12.19,7.83,7.61,0,*43
1499695691.34,53808,17.94,74204.5,12.17,8.15,8.01,0,*4B
1499695692.56,53809,18.0,74202.5,12.15,8.23,8.13,0,*4E
1499695693.77,53810,17.94,74200.0,12.13,8.87,8.83,0,*47
1499695694.98,53811,18.0,74210.8,12.15,9.53,9.47,0,*41
1499695696.22,53812,18.0,74208.5,12.15,9.89,9.85,0,*4B
1499695697.44,53813,17.94,74204.8,12.17,10.13,10.09,0,*4F
1499695698.66,53814,18.0,74206.8,12.17,10.17,10.17,0,*43
1499695699.91,53815,18.0,74204.5,12.19,10.19,10.19,0,*4C
1499695701.18,53816,18.0,74208.3,12.21,10.31,10.27,0,*43
1499695702.41,53817,17.94,74212.0,12.21,9.75,9.61,0,*40
1499695703.62,53818,18.0,74212.0,12.23,9.01,8.87,0,*47
1499695704.83,53819,18.0,74210.8,12.21,8.69,8.61,0,*43
1499695706.08,53820,17.94,74204.0,12.21,8.75,8.71,0,*45
1499695707.31,53821,17.94,74194.8,12.19,9.15,8.97,0,*40
1499695708.49,53822,18.0,74216.0,12.19,9.71,9.63,0,*4B
1499695709.66,53823,18.0,74224.5,12.19,9.63,9.63,0,*49
1499695710.91,53824,18.0,74228.0,12.21,9.53,9.61,0,*44
1499695712.13,53825,18.0,74228.5,12.19,9.49,9.71,0,*44
1499695713.37,53826,18.0,74226.3,12.21,9.85,10.03,0,*71
1499695714.59,53827,17.94,74218.5,12.23,10.17,10.31,0,*40
1499695715.81,53828,17.94,74216.0,12.27,10.43,10.37,0,*4C
1499695717.05,53829,18.0,74222.3,12.29,10.43,10.19,0,*4F
1499695718.28,53830,18.0,74232.8,12.29,10.27,9.99,0,*75
1499695719.46,53831,18.0,74234.0,12.31,8.69,8.15,0,*4B
1499695720.67,53832,18.0,74224.8,12.31,8.79,8.13,0,*4F
1499695721.91,53833,18.0,74202.5,12.27,7.65,7.11,0,*46